Find Starlink 30816

NORAD ID: 58162 Int'l Des: 2023-166 Owner: SPXS Country: US Constellation: starlink operational
LEOCIRCULAR

Live-Position

3D-Globus wird geladen...

Über Starlink 30816

Beschreibung wird geladen...

Nächste Überflüge

Passes for default location (London). Set your location on the main map for personalized predictions.

Höhenverlauf

Loading altitude history...

Zweizeiliger Elementsatz

1 58162U 23166N 26124.81765003 -.00000188 00000-0 57917-5 0 9997
2 58162 53.1611 318.8396 0001235 81.6474 278.4666 15.30196468141772
Epoch: 4. Mai 2026 • Age: 12 hours

Aktueller Status

Höhe 477.6 km
Geschwindigkeit 7.63 km/s
Subsatellitenpunkt 36.67°N, 132.18°E
Startdatum 29. Okt. 2023
Alter 2.5 years
Typ internet

Technische Details

Klassifizierung Payload
Masse 730.00 kg
Trockenmasse 700.00 kg
Gesamtmasse 730.00 kg
Länge 0.30 m
Durchmesser 4.10 m
Spannweite 29.00 m
Form Box + pan
Hersteller SPXS
Bus-Typ Starlink V2M
Phasenstatus In Orbit
Besitzer/Staat SPXS/US

Most Searched